Temperature
7 6 6 6 6 5 5 5 5 5 5 5 4 4 4 4 3 3 2 1 1 1 0 -0 -1 -1 -1 -2 -2 -2 -2 -3 -3 -2 -1 -1 -2 -2 -2 -3 -3 -2 -2
6 6 5 5 5 5 5 5 5 4 4 4 4 3 3 3 2 2 1 1 -0 -1 -1 -1 -2 -2 -2 -3 -3 -3 -3 -3 -3 -3 -2 -2 -2 -3 -3 -3 -3 -3 -3
5 5 5 5 5 5 4 4 4 4 4 3 3 3 2 2 2 1 0 -0 -1 -1 -2 -2 -2 -3 -3 -3 -3 -3 -3 -3 -3 -3 -3 -3 -3 -3 -4 -4 -4 -4 -4
5 5 5 4 4 4 4 4 4 3 3 3 2 2 2 1 1 1 -0 -1 -1 -2 -2 -3 -3 -4 -4 -4 -4 -4 -4 -4 -4 -4 -4 -4 -4 -4 -4 -4 -4 -4 -4
5 4 4 4 4 4 4 3 3 3 2 2 2 1 1 1 0 -0 -1 -2 -3 -3 -4 -4 -4 -4 -4 -4 -4 -4 -4 -4 -4 -4 -4 -4 -4 -4 -4 -4 -5 -4 -5
4 4 4 4 3 3 3 3 2 2 2 1 1 0 -0 -1 -1 -2 -3 -4 -4 -4 -4 -4 -4 -4 -4 -4 -4 -4 -4 -3 -3 -3 -3 -4 -4 -4 -4 -4 -5 -5 -5
4 4 3 3 3 3 2 2 1 1 0 -0 -1 -1 -2 -2 -2 -3 -4 -5 -5 -5 -5 -5 -5 -5 -5 -4 -4 -4 -4 -4 -4 -4 -4 -4 -4 -4 -4 -4 -5 -5 -5
3 3 3 3 2 2 1 1 0 -1 -1 -2 -2 -2 -3 -3 -3 -4 -5 -5 -5 -5 -5 -5 -5 -5 -5 -4 -4 -4 -4 -4 -4 -4 -4 -4 -4 -4 -4 -4 -4 -5 -5
3 3 2 2 1 1 0 -0 -1 -2 -2 -2 -3 -3 -4 -3 -4 -5 -5 -6 -5 -5 -5 -5 -5 -5 -4 -4 -4 -4 -4 -4 -4 -4 -4 -4 -4 -4 -4 -4 -5 -5 -6
2 2 2 1 0 -0 -1 -1 -2 -2 -3 -3 -4 -4 -5 -4 -5 -6 -6 -6 -6 -5 -5 -5 -5 -4 -4 -4 -4 -4 -4 -4 -4 -4 -4 -4 -5 -5 -5 -5 -5 -5 -6
2 1 1 0 -0 -1 -1 -2 -3 -3 -4 -4 -5 -5 -5 -5 -6 -6 -6 -6 -5 -5 -5 -5 -5 -4 -4 -4 -4 -4 -4 -4 -4 -4 -4 -4 -5 -5 -5 -5 -5 -5 -6
1 0 0 -0 -1 -1 -2 -3 -3 -4 -4 -5 -5 -6 -6 -6 -6 -6 -6 -6 -5 -5 -5 -5 -5 -4 -4 -4 -4 -4 -4 -4 -4 -4 -4 -5 -5 -5 -5 -5 -5 -6 -6
-0 -0 -1 -1 -2 -2 -3 -4 -4 -5 -5 -6 -6 -6 -6 -6 -6 -6 -6 -6 -6 -5 -5 -5 -5 -4 -4 -4 -4 -4 -4 -4 -5 -5 -5 -5 -5 -5 -5 -6 -6 -6 -6
-1 -1 -2 -2 -2 -3 -4 -5 -5 -6 -6 -6 -7 -7 -7 -7 -6 -6 -6 -6 -6 -5 -5 -5 -5 -5 -5 -5 -5 -5 -5 -5 -5 -5 -5 -5 -6 -6 -6 -6 -6 -6 -7
-2 -2 -2 -3 -3 -4 -4 -5 -6 -6 -7 -7 -7 -7 -7 -7 -7 -6 -6 -6 -6 -5 -5 -5 -5 -5 -5 -5 -5 -5 -5 -5 -5 -6 -6 -6 -6 -6 -6 -6 -6 -7 -7
-2 -3 -3 -4 -4 -5 -5 -6 -6 -6 -7 -7 -7 -7 -7 -7 -7 -7 -6 -6 -6 -6 -6 -5 -6 -6 -6 -6 -6 -6 -6 -6 -6 -6 -6 -6 -6 -6 -6 -6 -6 -7 -7
-3 -3 -4 -4 -5 -5 -6 -6 -6 -6 -7 -7 -7 -7 -7 -7 -7 -7 -7 -6 -6 -6 -6 -6 -6 -6 -6 -6 -6 -6 -6 -6 -6 -6 -6 -6 -6 -6 -7 -7 -7 -7 -7
-3 -4 -4 -5 -5 -6 -6 -7 -7 -7 -7 -8 -7 -7 -7 -7 -7 -7 -7 -7 -7 -7 -7 -7 -7 -7 -6 -6 -6 -6 -6 -6 -6 -6 -7 -7 -7 -7 -7 -7 -7 -7 -7
-4 -4 -5 -5 -6 -7 -7 -7 -7 -8 -8 -8 -8 -8 -8 -8 -8 -7 -7 -7 -7 -7 -7 -7 -7 -7 -7 -7 -7 -7 -7 -7 -7 -7 -7 -7 -7 -7 -7 -7 -7 -8 -8
-4 -5 -5 -6 -6 -7 -7 -7 -8 -8 -8 -8 -8 -8 -8 -8 -8 -8 -8 -8 -8 -7 -7 -7 -7 -7 -7 -7 -7 -7 -7 -7 -7 -7 -7 -7 -7 -7 -7 -8 -8 -8 -8
-5 -5 -6 -6 -7 -7 -8 -8 -8 -8 -9 -9 -9 -9 -9 -8 -8 -8 -8 -8 -8 -8 -8 -8 -8 -7 -7 -7 -7 -7 -7 -7 -7 -7 -7 -7 -7 -8 -8 -8 -8 -8 -8
-6 -6 -6 -7 -7 -8 -8 -8 -8 -9 -9 -9 -9 -9 -9 -9 -8 -8 -8 -8 -8 -8 -8 -8 -8 -8 -8 -7 -7 -7 -7 -7 -7 -7 -7 -8 -8 -8 -8 -8 -8 -9 -9
-6 -6 -7 -7 -8 -8 -8 -9 -9 -9 -10 -10 -9 -9 -9 -9 -9 -9 -8 -8 -8 -8 -8 -8 -8 -8 -8 -8 -7 -8 -8 -8 -8 -8 -8 -8 -8 -8 -8 -9 -9 -9 -9
-7 -7 -7 -8 -8 -8 -9 -9 -10 -10 -10 -10 -10 -9 -9 -9 -9 -9 -9 -9 -8 -8 -8 -8 -8 -8 -8 -8 -7 -7 -8 -8 -8 -8 -8 -8 -8 -8 -9 -9 -9 -9 -9
-7 -7 -8 -8 -9 -9 -9 -10 -10 -10 -10 -10 -10 -10 -9 -9 -9 -9 -9 -9 -8 -8 -8 -8 -8 -8 -8 -7 -8 -8 -8 -8 -8 -8 -8 -8 -8 -9 -9 -9 -9 -9 -10
-8 -8 -9 -9 -9 -10 -10 -10 -10 -10 -10 -10 -10 -10 -10 -9 -9 -9 -9 -9 -9 -8 -8 -8 -8 -8 -8 -8 -8 -8 -8 -8 -8 -8 -8 -9 -9 -9 -9 -9 -9 -10 -10
Wind_Speed
4 5 6 6 7 8 8 10 10 11 12 13 14 15 15 16 16 16 17 18 19 19 18 19 20 20 17 16 16 16 16 16 20 24 20 18 19 19 17 18 20 20 19
4 6 7 8 8 9 10 11 12 13 13 14 15 16 16 17 17 18 19 19 20 20 20 20 20 17 20 18 16 18 17 17 19 25 23 18 19 18 17 18 17 16 18
5 7 8 9 10 11 12 13 13 14 15 15 15 16 17 17 17 18 19 20 20 20 20 19 20 20 21 18 19 18 16 16 17 20 22 18 16 14 15 16 19 17 18
7 8 10 10 11 12 13 14 14 15 15 16 17 17 17 15 15 17 18 19 19 20 20 21 21 20 21 21 18 19 17 17 17 18 19 17 16 15 13 14 15 15 15
8 9 10 11 12 13 13 14 15 15 16 16 17 18 18 14 12 13 14 17 18 20 21 20 21 24 26 23 18 16 16 16 16 16 17 16 15 13 12 13 14 14 15
9 11 11 12 12 13 14 15 16 16 17 17 17 18 19 16 20 25 22 20 19 19 18 18 19 21 25 28 30 29 25 18 16 16 16 16 17 16 13 12 13 13 12
11 12 12 12 13 14 15 16 17 18 18 18 18 19 20 21 24 26 27 22 21 20 20 18 16 17 22 16 21 26 26 29 27 19 18 18 17 15 14 15 14 14 14
12 13 13 13 14 15 16 17 18 17 18 18 19 20 20 21 25 26 26 21 19 19 19 19 19 19 18 17 15 16 17 18 21 17 14 15 16 15 13 13 13 14 13
13 14 14 14 15 16 17 19 18 18 18 18 19 20 21 22 23 24 25 17 16 19 18 18 19 19 23 26 19 17 17 16 19 24 25 23 24 24 18 11 11 11 11
14 15 15 16 16 18 19 19 18 18 18 19 19 19 20 21 23 24 25 15 16 16 16 16 21 22 24 26 18 16 17 15 14 14 16 18 17 16 19 11 10 11 9
14 15 16 16 17 18 18 17 18 18 19 19 20 18 19 20 22 23 24 15 15 16 14 14 14 22 25 26 24 17 19 18 14 13 11 11 10 9 9 9 9 10 10
15 16 17 18 16 15 17 18 18 18 19 19 18 18 16 17 19 21 24 24 23 17 15 14 15 24 27 27 22 21 23 20 11 10 9 9 9 9 8 8 8 9 9
16 18 18 18 17 16 17 18 17 16 15 15 15 16 16 15 17 23 25 25 26 18 16 22 25 27 26 20 20 23 19 12 9 9 10 9 8 7 6 5 7 7 8
17 18 17 17 17 16 14 14 14 14 15 15 16 16 17 16 16 15 15 17 20 18 16 19 24 23 18 17 17 14 10 9 9 9 9 8 7 6 6 6 6 7 7
18 17 17 15 16 16 15 14 15 15 16 17 17 17 17 18 19 26 23 17 16 17 18 14 12 11 11 10 9 9 8 8 8 7 7 7 6 6 6 6 6 7 7
16 16 14 14 14 14 15 16 16 18 24 26 26 24 20 23 29 30 29 29 28 26 19 12 12 11 11 10 10 9 8 7 7 7 6 6 6 6 6 5 6 7 7
16 16 14 14 14 14 15 16 17 18 20 23 25 26 25 27 29 28 28 27 25 22 13 11 11 11 10 10 9 9 8 7 6 6 6 6 6 6 6 6 6 7 7
16 15 14 13 14 14 15 15 16 17 18 16 19 23 25 26 26 26 26 21 15 12 10 10 11 10 10 10 9 8 7 6 5 5 6 5 5 5 6 6 6 7 7
15 13 12 13 14 14 15 15 15 17 17 17 17 18 21 23 24 23 20 12 12 11 11 10 10 10 9 9 8 7 7 6 5 5 5 5 5 5 6 6 6 8 8
13 16 16 14 14 14 14 15 15 16 16 16 16 16 16 17 15 14 13 12 11 11 11 11 10 10 9 8 8 7 6 6 5 5 5 5 5 5 6 7 6 7 7
13 14 17 15 13 14 14 15 15 15 16 16 16 17 22 16 14 14 13 12 11 11 11 11 10 10 9 8 7 7 7 6 5 5 5 5 5 5 5 6 6 7 7
12 13 13 14 14 14 15 15 15 15 16 17 16 17 22 15 13 13 12 12 11 11 10 10 9 8 8 7 7 6 6 6 5 5 5 5 5 5 5 6 6 7 7
13 14 14 14 14 17 17 15 15 15 15 16 16 15 14 13 13 13 13 12 11 10 10 9 9 8 7 6 6 6 6 6 5 5 5 5 5 5 6 7 8 8 9
14 14 15 15 14 14 15 15 15 15 15 15 15 15 14 13 13 14 13 12 11 10 9 8 8 9 10 7 6 5 5 5 5 5 6 6 6 6 7 7 8 9 10
14 14 14 14 14 14 15 15 15 15 15 15 15 14 14 14 13 13 12 11 11 10 11 10 8 7 8 8 7 6 7 9 8 6 5 6 7 7 8 8 8 9 10
14 14 14 13 13 14 14 14 15 15 15 15 14 14 14 13 13 12 11 10 10 10 9 8 8 8 8 7 8 9 10 9 9 9 6 6 7 7 8 8 10 10 12
Wind_Direction
350 337 326 322 317 310 305 304 303 301 299 297 296 295 293 291 290 287 283 283 280 278 275 271 269 269 269 267 264 260 257 254 263 274 275 274 270 266 262 260 262 263 261
338 327 321 316 312 308 306 305 304 301 299 297 295 292 291 290 289 288 288 286 283 281 279 276 274 273 270 268 265 263 260 257 258 269 275 276 272 268 263 260 261 262 262
325 319 315 313 311 308 307 305 303 300 298 296 294 292 291 289 288 287 287 286 285 283 281 279 276 274 272 269 267 265 263 261 258 263 271 275 273 268 263 258 257 258 261
315 312 310 310 309 306 304 302 301 299 297 296 295 292 290 286 282 282 283 283 283 281 279 277 275 272 270 270 269 267 266 264 261 261 267 270 268 264 257 255 256 253 254
308 306 305 305 304 302 301 300 299 298 295 295 293 292 291 287 276 274 276 277 277 278 277 275 273 270 268 268 266 264 260 260 260 260 263 265 263 258 250 247 251 255 255
301 301 302 301 301 301 301 301 300 298 297 295 293 292 291 289 287 289 290 288 286 283 282 279 276 274 273 272 271 271 268 263 261 261 264 263 263 259 252 245 246 249 253
296 298 299 299 299 300 301 300 299 299 298 297 295 293 292 292 293 294 295 294 290 288 287 285 283 280 279 274 275 277 277 275 272 269 268 267 268 263 255 247 240 240 245
295 297 299 299 298 299 300 300 300 301 299 298 297 296 295 294 296 298 300 297 291 287 285 284 284 283 280 278 270 268 267 267 267 269 264 265 267 266 254 247 246 245 248
296 299 301 300 298 299 299 300 302 302 300 299 298 297 296 297 298 299 299 296 291 289 287 285 283 282 281 282 280 274 273 269 268 266 263 262 262 262 253 240 233 234 240
299 300 301 300 298 298 299 301 301 300 299 299 297 297 296 296 297 299 300 296 293 292 289 285 283 282 283 284 281 278 277 276 271 268 266 266 267 268 263 245 231 230 233
300 299 298 298 298 299 300 299 300 300 299 299 299 298 297 297 299 299 299 298 293 294 292 290 286 287 288 287 286 281 277 278 273 267 265 260 252 246 246 239 226 225 226
300 299 299 300 300 299 299 300 301 302 302 303 303 303 301 300 300 300 301 300 300 298 295 292 290 292 292 291 290 285 284 287 281 272 268 261 251 243 236 228 220 221 224
301 300 301 302 300 299 299 301 302 302 301 302 303 303 303 303 303 303 303 303 301 298 292 291 294 296 298 296 290 288 288 283 276 272 267 260 253 244 231 219 212 216 219
301 302 303 302 302 301 300 298 298 300 300 300 301 302 303 304 304 305 304 303 301 298 296 295 296 294 291 287 287 287 281 274 270 268 268 266 255 232 221 214 211 203 212
302 303 303 302 301 302 301 297 296 292 291 295 298 300 302 302 302 305 306 305 304 301 303 299 296 296 293 291 288 284 279 274 270 262 261 258 241 227 220 209 207 202 211
302 303 303 303 302 301 302 301 291 288 293 294 294 296 297 297 302 306 307 307 308 308 307 299 298 297 296 295 294 291 284 275 268 262 259 253 242 230 219 205 204 211 218
299 300 300 300 300 301 302 302 304 303 298 298 298 300 300 302 305 308 309 310 310 309 303 297 296 296 295 293 292 290 286 280 272 262 256 251 244 232 221 214 211 218 224
298 296 295 295 298 298 299 299 301 304 308 307 305 304 304 307 309 310 310 313 308 307 300 298 297 296 295 293 291 289 286 281 269 262 257 251 243 235 228 226 223 225 228
297 295 295 296 296 296 297 298 299 300 302 305 306 307 308 311 311 308 311 308 305 304 303 302 300 297 295 293 290 287 283 277 272 266 258 250 243 239 237 234 234 232 233
295 292 295 296 297 297 298 299 300 301 303 304 304 306 310 311 310 311 312 308 304 302 303 302 299 296 296 294 291 288 282 275 268 260 258 251 244 242 242 240 239 239 238
297 297 296 295 295 296 297 298 299 301 302 302 301 302 305 308 306 306 306 305 304 303 302 301 299 298 295 293 290 286 280 275 270 264 259 253 247 244 244 244 242 243 247
296 295 296 296 296 296 298 299 300 301 301 300 301 302 305 305 301 302 302 302 302 300 299 298 296 295 293 290 288 287 283 276 271 264 259 253 247 246 245 245 245 246 247
295 294 294 295 296 298 300 299 299 299 299 300 300 301 302 302 302 302 302 303 303 301 300 297 296 294 294 289 283 280 280 279 276 271 263 256 250 249 247 247 248 251 251
293 293 295 298 299 299 299 300 300 299 299 299 300 300 300 301 302 302 302 301 301 300 299 298 296 296 297 294 286 280 277 279 277 266 256 256 255 255 254 254 255 255 257
294 295 296 298 299 299 299 299 299 299 299 299 300 299 300 301 301 301 301 301 301 300 300 300 296 295 297 296 292 287 284 281 276 273 260 258 260 260 261 262 263 265 264
296 297 297 297 297 297 298 298 298 299 300 300 299 299 300 301 300 301 301 301 303 302 301 300 297 296 296 294 291 291 289 285 279 275 268 264 266 268 268 268 270 270 271
Height
1529 1527 1525 1522 1519 1516 1513 1510 1506 1502 1497 1493 1488 1483 1479 1474 1470 1464 1459 1454 1449 1445 1441 1436 1432 1429 1425 1422 1419 1416 1412 1409 1400 1388 1389 1392 1391 1389 1387 1385 1383 1382 1379
1526 1524 1521 1518 1515 1512 1508 1504 1500 1495 1491 1486 1480 1475 1470 1465 1460 1455 1449 1444 1439 1434 1430 1425 1421 1418 1414 1411 1408 1404 1401 1399 1394 1383 1377 1381 1381 1379 1377 1376 1374 1372 1370
1522 1520 1517 1514 1511 1507 1503 1498 1493 1488 1483 1478 1472 1466 1461 1456 1450 1445 1439 1434 1428 1423 1419 1414 1410 1407 1402 1400 1397 1393 1390 1388 1384 1377 1369 1370 1370 1369 1367 1365 1364 1362 1360
1518 1516 1513 1509 1505 1501 1496 1491 1486 1481 1475 1470 1464 1458 1452 1446 1440 1435 1429 1422 1417 1411 1407 1402 1398 1395 1391 1388 1385 1382 1380 1377 1373 1369 1362 1360 1360 1359 1358 1355 1353 1352 1350
1514 1511 1508 1504 1500 1495 1490 1484 1479 1473 1467 1461 1454 1448 1442 1436 1430 1424 1417 1411 1405 1399 1395 1391 1387 1384 1380 1378 1375 1371 1369 1366 1362 1359 1354 1351 1349 1349 1348 1346 1344 1343 1342
1509 1506 1502 1498 1493 1488 1482 1477 1471 1465 1458 1452 1445 1438 1432 1426 1420 1414 1408 1401 1395 1390 1384 1380 1377 1373 1369 1367 1364 1362 1359 1356 1352 1349 1345 1342 1339 1340 1338 1337 1336 1335 1334
1504 1500 1496 1491 1486 1481 1475 1469 1462 1456 1449 1443 1436 1429 1422 1416 1410 1404 1398 1393 1386 1381 1376 1371 1367 1363 1360 1357 1353 1350 1348 1345 1343 1340 1335 1332 1331 1330 1329 1328 1327 1326 1325
1499 1494 1490 1484 1478 1473 1467 1461 1454 1448 1441 1434 1427 1420 1413 1406 1401 1395 1389 1383 1377 1372 1367 1363 1359 1354 1351 1348 1344 1340 1337 1334 1332 1329 1326 1323 1322 1320 1319 1319 1318 1318 1317
1492 1488 1483 1477 1471 1465 1459 1452 1446 1439 1432 1425 1418 1411 1403 1397 1392 1386 1381 1374 1369 1364 1359 1355 1351 1346 1343 1340 1336 1331 1327 1324 1322 1320 1317 1314 1312 1311 1311 1310 1309 1310 1309
1486 1481 1476 1470 1464 1457 1451 1444 1437 1430 1423 1415 1408 1402 1395 1388 1383 1378 1373 1368 1361 1356 1351 1347 1343 1339 1335 1331 1328 1323 1319 1315 1313 1310 1307 1305 1304 1303 1302 1302 1301 1301 1301
1479 1473 1468 1462 1456 1449 1442 1436 1429 1422 1414 1407 1400 1393 1387 1381 1375 1370 1366 1361 1355 1349 1344 1339 1334 1331 1327 1323 1320 1315 1311 1308 1304 1301 1299 1297 1295 1294 1293 1293 1293 1294 1294
1471 1465 1460 1454 1448 1441 1434 1428 1421 1414 1406 1399 1392 1385 1379 1374 1368 1363 1359 1354 1349 1343 1336 1331 1327 1323 1319 1314 1310 1306 1303 1300 1296 1293 1291 1289 1288 1287 1286 1286 1286 1286 1287
1463 1457 1452 1446 1440 1434 1427 1420 1413 1407 1400 1392 1385 1378 1371 1366 1361 1356 1351 1346 1340 1335 1329 1324 1319 1315 1310 1305 1301 1297 1294 1291 1288 1286 1284 1282 1281 1280 1280 1280 1280 1280 1281
1455 1449 1443 1437 1431 1425 1419 1413 1406 1400 1393 1386 1379 1372 1365 1359 1354 1348 1343 1338 1332 1327 1321 1316 1311 1306 1301 1297 1293 1289 1286 1284 1281 1279 1277 1276 1275 1274 1274 1274 1275 1275 1276
1447 1441 1435 1429 1423 1417 1411 1405 1399 1393 1388 1381 1373 1367 1359 1352 1347 1343 1337 1331 1325 1320 1314 1308 1303 1298 1294 1290 1286 1283 1280 1277 1275 1273 1271 1270 1270 1270 1270 1270 1271 1271 1272
1438 1433 1427 1421 1415 1409 1402 1395 1390 1385 1379 1373 1367 1361 1353 1347 1340 1335 1329 1324 1318 1313 1307 1301 1297 1293 1288 1284 1281 1277 1275 1272 1270 1268 1267 1266 1266 1266 1266 1266 1267 1267 1268
1431 1425 1419 1413 1408 1401 1395 1387 1379 1374 1370 1364 1358 1352 1346 1339 1333 1327 1322 1316 1311 1306 1300 1295 1291 1287 1283 1279 1276 1272 1270 1267 1265 1264 1263 1262 1262 1262 1262 1262 1263 1263 1264
1423 1417 1412 1406 1401 1394 1388 1382 1375 1367 1359 1353 1348 1343 1337 1331 1325 1320 1314 1309 1303 1299 1295 1290 1286 1282 1278 1274 1271 1268 1265 1263 1261 1260 1259 1258 1258 1258 1258 1259 1259 1259 1260
1415 1410 1405 1399 1393 1388 1382 1375 1369 1362 1355 1347 1340 1334 1330 1324 1318 1313 1309 1304 1298 1294 1289 1285 1281 1277 1273 1270 1266 1264 1261 1259 1258 1256 1255 1255 1255 1255 1255 1255 1255 1255 1255
1407 1402 1397 1392 1386 1380 1375 1369 1362 1356 1349 1342 1335 1328 1323 1317 1312 1307 1303 1298 1293 1289 1284 1280 1276 1272 1268 1265 1262 1260 1258 1256 1254 1253 1252 1251 1251 1251 1251 1250 1250 1250 1250
1399 1394 1389 1384 1379 1373 1367 1361 1355 1349 1342 1335 1329 1323 1319 1313 1307 1302 1297 1292 1288 1283 1279 1275 1271 1267 1264 1261 1258 1256 1254 1252 1251 1250 1249 1248 1247 1247 1246 1246 1245 1245 1245
1392 1387 1382 1377 1371 1366 1360 1355 1349 1342 1335 1329 1322 1317 1312 1307 1302 1297 1292 1287 1283 1278 1274 1270 1266 1263 1260 1257 1255 1253 1251 1249 1248 1246 1245 1244 1243 1243 1242 1241 1240 1240 1239
1384 1379 1374 1369 1364 1358 1353 1347 1341 1335 1329 1322 1317 1311 1306 1301 1296 1291 1286 1282 1277 1273 1269 1265 1262 1259 1256 1253 1251 1249 1248 1246 1245 1243 1242 1241 1240 1239 1237 1236 1235 1234 1233
1377 1372 1367 1361 1356 1351 1345 1339 1333 1328 1322 1316 1311 1305 1300 1296 1291 1286 1281 1276 1272 1268 1265 1261 1258 1255 1252 1250 1248 1246 1244 1243 1241 1240 1238 1237 1236 1234 1233 1231 1229 1228 1226
1369 1364 1359 1354 1348 1343 1337 1331 1326 1320 1315 1310 1304 1299 1295 1290 1285 1280 1276 1272 1268 1264 1261 1257 1254 1252 1249 1247 1245 1243 1241 1240 1238 1237 1235 1233 1231 1230 1228 1226 1224 1222 1220
1361 1356 1351 1346 1340 1335 1329 1324 1319 1314 1308 1303 1298 1293 1289 1284 1279 1275 1271 1267 1263 1260 1257 1254 1251 1248 1246 1244 1242 1240 1238 1236 1235 1233 1231 1229 1227 1225 1223 1220 1218 1215 1213